Location: F M Corners
(41.2198°N, 80.4709°W)
Time: 08:57:19
(UTC+00:00)

Aureole 3 Rocket - Pass Details

Date: 29 October 2020
Orbit: 399 x 1739 km, 82.5° (Epoch: 26 November)

Event Time Altitude Azimuth Distance (km) Brightness Sun altitude
Rises 23:23:56 0° 192° (SSW) 2,591 6.5 -12.5°
Reaches altitude 10° 23:25:47 10° 195° (SSW) 1,821 5.8 -12.8°
Maximum altitude 23:29:43 72° 280° (W) 707 3.5 -13.6°
Drops below altitude 10° 23:35:15 10° 5° (N) 2,531 6.1 -14.6°
Sets 23:38:11 0° 7° (N) 3,709 6.9 -15.2°
